Date String (YYYY-MM-DD hh:mm:ss) UTC,Instrument flags,absolute air pressure of the measurement (hPa),sample flow rate (lpm),inlet stack bypass flow (lpm),air temperature of the measurement (°C),ambient temperature measured by the external sensor (°C),aerosol sample conditioner tube jacket temperature (°C),OPC LED temperature (°C),internal box temperature (°C),relative humidity of the measurement (%),span deviation,mass concentration of particles derived from Lorenz-Mie calculation of OPC scattering (μg/m³),mass concentration of particles derived from Lorenz-Mie calculation of OPC scattering (μg/m³),mass concentration of particles derived from Lorenz-Mie calculation of OPC scattering (μg/m³)
DateTimeUTC,F1_M11,P_M11,Q1_M11,Q2_M11,T1_M11,T2_M11,T3_M11,T4_M11,T5_M11,U1_M11,ZSPAN_M11,X2_M11,X0_M11,X1_M11
2023-12-15 12:00:00,SystemResetWarning,0833.4,5.00,000.00,018.7,017.7,000.0,027.2,020.0,13.7,0000.0,0001.01,0002.05,0000.91
2023-12-15 12:01:00,SystemResetWarning,0833.4,5.00,000.00,018.7,017.7,000.0,027.2,020.0,13.7,0000.0,0001.03,0001.28,0000.93
2023-12-15 12:02:00,SystemResetWarning,0833.4,5.00,000.00,018.7,017.7,000.0,027.2,020.0,13.8,0000.0,0001.03,0001.32,0000.93
2023-12-15 12:03:00,SystemResetWarning,0833.4,5.00,000.00,018.7,017.6,000.0,027.2,020.0,14.2,0000.0,0001.03,0001.34,0000.93
2023-12-15 12:04:00,SystemResetWarning,0833.5,4.99,000.00,018.7,017.6,000.0,027.2,020.0,14.9,0000.0,0001.04,0001.40,0000.92
2023-12-15 12:05:00,SystemResetWarning,0833.5,5.00,000.00,018.7,017.6,000.0,027.2,020.0,15.0,0000.0,0001.04,0001.46,0000.92
2023-12-15 12:06:00,SystemResetWarning,0833.5,4.99,000.00,018.7,017.6,000.0,027.2,020.0,14.7,0000.0,0001.07,0001.53,0000.93
2023-12-15 12:07:00,SystemResetWarning,0833.5,5.00,000.00,018.7,017.6,000.0,027.2,020.0,14.5,0000.0,0001.09,0001.56,0000.95
2023-12-15 12:08:00,SystemResetWarning,0833.5,5.00,000.00,018.7,017.6,000.0,027.2,020.0,14.4,0000.0,0001.11,0001.59,0000.97
2023-12-15 12:09:00,SystemResetWarning,0833.5,5.00,000.00,018.7,017.6,000.0,027.2,020.0,14.2,0000.0,0001.12,0001.62,0000.97
2023-12-15 12:10:00,SystemResetWarning,0833.4,5.00,000.00,018.7,017.6,000.0,027.2,020.0,14.2,0000.0,0001.15,0001.66,0000.99
2023-12-15 12:11:00,SystemResetWarning,0833.4,5.01,000.00,018.7,017.6,000.0,027.2,020.0,14.2,0000.0,0001.17,0001.68,0001.00
2023-12-15 12:12:00,SystemResetWarning,0833.4,5.00,000.00,018.7,017.6,000.0,027.2,020.0,14.2,0000.0,0001.16,0001.67,0001.00
2023-12-15 12:13:00,SystemResetWarning,0833.4,4.99,000.00,018.7,017.6,000.0,027.2,020.0,14.2,0000.0,0001.14,0001.60,0000.99
2023-12-15 12:14:00,SystemResetWarning,0833.4,5.00,000.00,018.7,017.8,000.0,027.1,020.4,14.5,0000.0,0001.13,0001.54,0000.99
2023-12-15 12:15:00,SystemResetWarning,0833.5,5.01,000.00,018.9,018.5,000.0,027.1,020.8,15.5,0000.0,0001.12,0001.48,0001.00
2023-12-15 12:16:00,SystemResetWarning,0833.5,5.01,000.00,019.0,018.9,000.0,027.2,020.8,16.3,0000.0,0001.12,0001.42,0001.00
2023-12-15 12:17:00,SystemResetWarning,0833.6,5.00,000.00,019.0,018.8,000.0,027.2,020.5,16.3,0000.0,0001.11,0001.40,0001.01
2023-12-15 12:18:00,SystemResetWarning,0833.4,4.99,000.00,019.0,018.7,000.0,027.2,020.3,16.2,0000.0,0001.12,0001.37,0001.03
2023-12-15 12:19:00,SystemResetWarning,0833.4,4.99,000.00,018.9,018.5,000.0,027.2,020.2,15.8,0000.0,0001.15,0001.54,0001.05
2023-12-15 12:20:00,SystemResetWarning,0833.4,5.00,000.00,018.9,018.4,000.0,027.2,020.2,15.6,0000.0,0001.19,0001.68,0001.07
2023-12-15 12:21:00,SystemResetWarning,0833.4,5.00,000.00,018.9,018.2,000.0,027.2,020.1,15.3,0000.0,0001.22,0001.73,0001.09
2023-12-15 12:22:00,SystemResetWarning,0833.4,5.00,000.00,018.8,018.1,000.0,027.2,020.0,15.0,0000.0,0001.25,0001.76,0001.11
2023-12-15 12:23:00,SystemResetWarning,0833.4,5.00,000.00,018.8,018.0,000.0,027.2,020.0,14.8,0000.0,0001.29,0001.82,0001.12
2023-12-15 12:24:00,SystemResetWarning,0833.4,5.00,000.00,018.8,018.0,000.0,027.2,020.0,14.6,0000.0,0001.31,0001.85,0001.14
2023-12-15 12:25:00,SystemResetWarning,0833.4,5.01,000.00,018.8,017.9,000.0,027.2,020.0,14.4,0000.0,0001.32,0001.85,0001.15
2023-12-15 12:26:00,SystemResetWarning,0833.4,5.01,000.00,018.7,017.8,000.0,027.2,020.0,14.3,0000.0,0001.33,0001.86,0001.16
2023-12-15 12:27:00,SystemResetWarning,0833.4,5.01,000.00,018.7,017.8,000.0,027.2,020.0,14.4,0000.0,0001.36,0001.89,0001.18
2023-12-15 12:28:00,SystemResetWarning,0833.4,4.99,000.00,018.7,017.8,000.0,027.2,020.0,14.7,0000.0,0001.36,0001.91,0001.17
2023-12-15 12:29:00,SystemResetWarning,0833.4,4.99,000.00,018.7,017.8,000.0,027.2,020.0,14.6,0000.0,0001.39,0002.10,0001.15
2023-12-15 12:30:00,SystemResetWarning,0833.4,4.99,000.00,018.7,017.7,000.0,027.2,020.0,14.1,0000.0,0001.39,0002.12,0001.12
2023-12-15 12:31:00,SystemResetWarning,0833.5,5.00,000.00,018.7,017.7,000.0,027.2,020.0,14.0,0000.0,0001.35,0001.94,0001.10
2023-12-15 12:32:00,SystemResetWarning,0833.5,5.00,000.00,018.7,017.7,000.0,027.2,020.0,13.9,0000.0,0001.33,0001.92,0001.08
2023-12-15 12:33:00,SystemResetWarning,0833.5,5.01,000.00,018.7,017.7,000.0,027.2,020.0,13.8,0000.0,0001.30,0001.93,0001.06
2023-12-15 12:34:00,SystemResetWarning,0833.5,5.01,000.00,018.7,017.6,000.0,027.2,020.0,13.7,0000.0,0001.30,0001.98,0001.04
2023-12-15 12:35:00,SystemResetWarning,0833.5,5.00,000.00,018.7,017.6,000.0,027.2,020.0,13.6,0000.0,0001.27,0001.94,0001.02
2023-12-15 12:36:00,SystemResetWarning,0833.6,4.98,000.00,018.7,017.6,000.0,027.2,020.0,13.5,0000.0,0001.26,0001.92,0001.01
2023-12-15 12:37:00,SystemResetWarning,0833.7,4.99,000.00,018.7,017.6,000.0,027.2,020.0,13.4,0000.0,0001.23,0001.89,0000.98
2023-12-15 12:38:00,SystemResetWarning,0833.7,5.00,000.00,018.7,017.6,000.0,027.2,020.0,13.3,0000.0,0001.21,0001.91,0000.96
2023-12-15 12:39:00,SystemResetWarning,0833.7,5.00,000.00,018.7,017.6,000.0,027.2,020.0,13.2,0000.0,0001.20,0001.89,0000.95
2023-12-15 12:40:00,SystemResetWarning,0833.7,5.01,000.00,018.7,017.6,000.0,027.2,020.0,13.0,0000.0,0001.16,0001.77,0000.94
2023-12-15 12:41:00,SystemResetWarning,0833.7,5.00,000.00,018.7,017.6,000.0,027.2,020.0,12.9,0000.0,0001.08,0001.55,0000.92
2023-12-15 12:42:00,SystemResetWarning,0833.7,5.01,000.00,018.7,017.6,000.0,027.2,020.0,12.8,0000.0,0001.04,0001.49,0000.89
2023-12-15 12:43:00,SystemResetWarning,0833.7,4.99,000.00,018.7,017.6,000.0,027.2,020.0,12.7,0000.0,0001.01,0001.45,0000.87
2023-12-15 12:44:00,SystemResetWarning,0833.7,4.99,000.00,018.7,017.6,000.0,027.2,020.0,12.6,0000.0,0000.97,0001.37,0000.85
2023-12-15 12:45:00,SystemResetWarning,0833.7,5.00,000.00,018.7,017.6,000.0,027.2,020.2,12.4,0000.0,0000.94,0001.29,0000.84
2023-12-15 12:46:00,SystemResetWarning,0833.8,5.01,000.00,018.8,018.2,000.0,027.2,020.7,12.3,0000.0,0000.92,0001.26,0000.83
2023-12-15 12:47:00,SystemResetWarning,0833.8,5.00,000.00,018.9,019.0,000.0,027.2,020.9,12.2,0000.0,0000.91,0001.27,0000.81
2023-12-15 12:48:00,SystemResetWarning,0833.8,4.99,000.00,019.0,019.0,000.0,027.2,020.7,12.2,0000.0,0000.90,0001.26,0000.79
2023-12-15 12:49:00,SystemResetWarning,0833.9,5.00,000.00,019.0,018.9,000.0,027.2,020.5,12.1,0000.0,0000.88,0001.22,0000.78
2023-12-15 12:50:00,SystemResetWarning,0833.9,5.01,000.00,019.0,018.7,000.0,027.2,020.4,12.8,0000.0,0000.86,0001.19,0000.76
2023-12-15 12:51:00,SystemResetWarning,0833.8,5.01,000.00,019.0,018.6,000.0,027.2,020.3,15.1,0000.0,0000.86,0001.18,0000.76
2023-12-15 12:52:00,SystemResetWarning,0833.9,5.00,000.00,019.0,018.5,000.0,027.2,020.2,13.7,0000.0,0000.85,0001.10,0000.75
2023-12-15 12:53:00,SystemResetWarning,0834.0,4.99,000.00,018.9,018.4,000.0,027.2,020.2,13.9,0000.0,0000.86,0001.13,0000.76
2023-12-15 12:54:00,SystemResetWarning,0833.9,4.99,000.00,018.9,018.3,000.0,027.2,020.1,15.2,0000.0,0000.94,0001.26,0000.82
2023-12-15 12:55:00,SystemResetWarning,0833.9,5.00,000.00,018.9,018.3,000.0,027.2,020.0,16.5,0000.0,0000.99,0001.33,0000.84
2023-12-15 12:56:00,SystemResetWarning,0833.9,5.00,000.00,018.9,018.2,000.0,027.2,020.0,16.8,0000.0,0001.01,0001.34,0000.88
2023-12-15 12:57:00,SystemResetWarning,0834.0,5.00,000.00,018.9,018.2,000.0,027.2,020.0,17.8,0000.0,0001.11,0001.43,0000.99
2023-12-15 12:58:00,SystemResetWarning,0834.0,5.00,000.00,018.9,018.2,000.0,027.2,020.0,18.2,0000.0,0001.24,0001.56,0001.12
2023-12-15 12:59:00,SystemResetWarning,0834.1,5.00,000.00,018.8,018.1,000.0,027.2,020.0,17.9,0000.0,0001.40,0001.86,0001.27
